{"data":{"norad_id":87071,"epoch":"2026-05-20T07:48:41.903136Z","epoch_age_seconds":479221,"freshness":"STALE","line1":"1 87071U          26140.32548499  .00002233  00000+0  82245-3 0  9993","line2":"2 87071  61.2177 159.9006 0474528 317.1895  39.3070 13.86998843624477","mean_motion":13.86998843,"eccentricity":0.0474528,"inclination_deg":61.2177,"raan_deg":159.9006,"arg_perigee_deg":317.1895,"mean_anomaly_deg":39.307,"bstar":0.00082245,"rev_number":62447,"period_min":103.82128343275,"perigee_km":591.94060470904,"apogee_km":1286.3937479459,"semimajor_km":7317.3041763275,"source":"CELESTRAK","updated_at":"2026-05-25T13:38:11.436316Z"}}